Flag for U.S.A. Weather past 2 weeks in Escondido, California, U.S.A.

Now
63 °F

Sunny.


Feels Like: 63 °F
Forecast: 53 / 76 °F
Wind: 3 mph from West

Location: Ramona Airport

Current Time: Jun 1, 2015 at 8:54:33 PM

Latest Report: Jun 1, 2015 at 7:53 PM


Visibility: 10 mi

Pressure: 29.97 "Hg

Humidity: 65%

Dew point: 51 °F

Location of EscondidoLocation

Historic Weather in Escondido — Graph

°F

Escondido temperature yesterday

Maximum temperature yesterday: 79 °F (at 12:53 PM)
Minimum temperature yesterday: 53 °F (at 12:53 AM)
Average temperature yesterday: 64 °F

Past Weeks' High & Low Weather Summary

 TemperatureHumidityPressure
High83 °F (May 29, 1:53 PM)100% (May 25, 3:53 AM)30.11 "Hg (May 25, 3:53 AM)
Low49 °F (May 20, 1:53 AM)29% (Jun 1, 12:53 PM)29.85 "Hg (May 30, 5:53 PM)
Average60 °F77%29.97 "Hg
* Reported May 17 6:53 PM — Jun 1 6:53 PM, Escondido, Weather by CustomWeather, © 2015

Note: Actual official high and low records may vary slightly from our data, if they occured in-between our weather recording intervals... More about our weather records

Advertising

Escondido weather history for previous 24 hours

 ConditionsComfort  
Time TempWeatherWind HumidityBarometerVisibility
6:53 PM
Mon, Jun 1
70 °FSunny.9 mph51%29.96 "Hg10 mi
5:53 PM74 °FSunny.10 mph43%29.95 "Hg10 mi
4:53 PM75 °FSunny.10 mph45%29.96 "Hg10 mi
3:53 PM79 °FSunny.12 mph38%29.95 "Hg10 mi
2:53 PM81 °FSunny.10 mph34%29.95 "Hg10 mi
1:53 PM81 °FSunny.14 mph35%29.95 "Hg10 mi
12:53 PM82 °FSunny.9 mph29%29.95 "Hg10 mi
11:53 AM78 °FSunny.10 mph45%29.97 "Hg10 mi
10:53 AM75 °FSunny.5 mph48%29.97 "Hg10 mi
9:53 AM68 °FSunny.6 mph63%29.98 "Hg10 mi
8:53 AM61 °FScattered clouds.No wind78%29.98 "Hg7 mi
7:53 AM57 °FFog.No wind90%29.97 "Hg3 mi
6:59 AM55 °FFog.No wind96%29.99 "Hg1 mi
5:53 AM56 °FFog.No wind93%29.94 "Hg2 mi
4:53 AM56 °FFog.3 mph93%29.93 "Hg2 mi
3:53 AM56 °FFog.5 mph93%29.94 "Hg2 mi
2:53 AM55 °FFog.5 mph96%29.94 "Hg1 mi
2:02 AM56 °FFog.3 mph93%29.98 "Hg3 mi
1:53 AM56 °FFog.3 mph93%29.94 "Hg2 mi
12:59 AM55 °FFog.No wind93%29.97 "Hg2 mi
11:53 PM
Sun, May 31
55 °FFog.No wind93%29.94 "Hg3 mi
11:00 PM54 °FFog.5 mph93%29.98 "Hg6 mi
9:53 PM58 °FClear.10 mph87%29.93 "Hg10 mi
8:53 PM60 °FClear.7 mph80%29.92 "Hg10 mi
Weather by CustomWeather, © 2015

See weather overviewHow to use our weather pages